| time (UTC) | temp F | wind direction | speed MPH | gust MPH | rain 1hr in | rain 24hr in | rain mn in | humidity % | barometer mb |
| 20260507182140 | 89 | 333 | 1.0 | 8.0 | 0.00 | 0.00 | 0.00 | 47 | 1000.5 |
| 20260507181628 | 89 | 347 | 1.0 | 8.0 | 0.00 | 0.00 | 0.00 | 47 | 1000.6 |
| 20260507181118 | 89 | 345 | 2.0 | 11.0 | 0.00 | 0.00 | 0.00 | 47 | 1000.6 |
| 20260507180608 | 89 | 17 | 2.0 | 11.0 | 0.00 | 0.00 | 0.00 | 47 | 1000.4 |
| 20260507180327 | 89 | 25 | 1.0 | 7.0 | 0.00 | 0.00 | 0.00 | 48 | 1000.5 |
| 20260507175546 | 89 | 24 | 2.0 | 7.0 | 0.00 | 0.00 | 0.00 | 48 | 1000.4 |
| 20260507175307 | 89 | 332 | 2.0 | 7.0 | 0.00 | 0.00 | 0.00 | 48 | 1000.6 |
| 20260507174526 | 89 | 29 | 1.0 | 4.0 | 0.00 | 0.00 | 0.00 | 48 | 1000.6 |
| 20260507174014 | 89 | 352 | 1.0 | 5.0 | 0.00 | 0.00 | 0.00 | 48 | 1000.5 |
| 20260507173736 | 89 | 13 | 2.0 | 10.0 | 0.00 | 0.00 | 0.00 | 48 | 1000.6 |
| 20260507173224 | 89 | 335 | 2.0 | 10.0 | 0.00 | 0.00 | 0.00 | 47 | 1000.7 |
| 20260507172442 | 90 | 24 | 2.0 | 6.0 | 0.00 | 0.00 | 0.00 | 48 | 1000.7 |
| 20260507171931 | 90 | 2 | 2.0 | 8.0 | 0.00 | 0.00 | 0.00 | 48 | 1000.9 |
| 20260507171413 | 90 | 35 | 3.0 | 13.0 | 0.00 | 0.00 | 0.00 | 48 | 1001.0 |
| 20260507170905 | 90 | 291 | 3.0 | 13.0 | 0.00 | 0.00 | 0.00 | 48 | 1001.2 |
| 20260507170352 | 90 | 60 | 2.0 | 13.0 | 0.00 | 0.00 | 0.00 | 47 | 1001.0 |
| 20260507165851 | 90 | 328 | 3.0 | 15.0 | 0.00 | 0.00 | 0.00 | 47 | 1001.1 |
| 20260507165345 | 90 | 353 | 3.0 | 15.0 | 0.00 | 0.00 | 0.00 | 46 | 1001.2 |
| 20260507164327 | 90 | 279 | 6.0 | 16.0 | 0.00 | 0.00 | 0.00 | 46 | 1001.5 |
| 20260507163815 | 91 | 342 | 6.0 | 17.0 | 0.00 | 0.00 | 0.00 | 45 | 1001.6 |
| 20260507163300 | 91 | 303 | 5.0 | 17.0 | 0.00 | 0.00 | 0.00 | 45 | 1001.4 |
| 20260507162750 | 91 | 345 | 4.0 | 14.0 | 0.00 | 0.00 | 0.00 | 45 | 1001.6 |
| 20260507162239 | 91 | 38 | 5.0 | 21.0 | 0.00 | 0.00 | 0.00 | 45 | 1001.4 |
| 20260507161722 | 91 | 12 | 7.0 | 23.0 | 0.00 | 0.00 | 0.00 | 46 | 1001.7 |
| 20260507161208 | 90 | 337 | 5.0 | 18.0 | 0.00 | 0.00 | 0.00 | 46 | 1001.8 |
| 20260507160927 | 91 | 303 | 4.0 | 20.0 | 0.00 | 0.00 | 0.00 | 47 | 1002.0 |
| 20260507160138 | 91 | 329 | 5.0 | 20.0 | 0.00 | 0.00 | 0.00 | 47 | 1001.9 |
| 20260507155632 | 92 | 262 | 3.0 | 18.0 | 0.00 | 0.00 | 0.00 | 48 | 1001.9 |
| 20260507155128 | 91 | 339 | 2.0 | 12.0 | 0.00 | 0.00 | 0.00 | 49 | 1001.8 |
| 20260507154630 | 90 | 307 | 2.0 | 10.0 | 0.00 | 0.00 | 0.00 | 49 | 1001.9 |
| 20260507154128 | 89 | 312 | 3.0 | 14.0 | 0.00 | 0.00 | 0.00 | 51 | 1002.2 |
| 20260507153628 | 89 | 338 | 4.0 | 14.0 | 0.00 | 0.00 | 0.00 | 50 | 1002.3 |
| 20260507152622 | 90 | 317 | 3.0 | 17.0 | 0.00 | 0.00 | 0.00 | 51 | 1002.4 |
| 20260507152123 | 89 | 309 | 4.0 | 18.0 | 0.00 | 0.00 | 0.00 | 51 | 1002.6 |
| 20260507151623 | 89 | 328 | 3.0 | 18.0 | 0.00 | 0.00 | 0.00 | 52 | 1002.8 |
| 20260507151123 | 89 | 38 | 2.0 | 14.0 | 0.00 | 0.00 | 0.00 | 51 | 1002.8 |
| 20260507150621 | 89 | 8 | 2.0 | 12.0 | 0.00 | 0.00 | 0.00 | 52 | 1002.8 |
| 20260507150118 | 89 | 332 | 2.0 | 12.0 | 0.00 | 0.00 | 0.00 | 53 | 1003.0 |
| 20260507145618 | 88 | 262 | 4.0 | 17.0 | 0.00 | 0.00 | 0.00 | 53 | 1003.3 |
| 20260507145114 | 88 | 12 | 3.0 | 17.0 | 0.00 | 0.00 | 0.00 | 53 | 1003.4 |
| 20260507144613 | 88 | 351 | 2.0 | 12.0 | 0.00 | 0.00 | 0.00 | 53 | 1003.6 |
| 20260507144344 | 88 | 351 | 2.0 | 12.0 | 0.00 | 0.00 | 0.00 | 53 | 1003.7 |
| 20260507143612 | 88 | 2 | 2.0 | 10.0 | 0.00 | 0.00 | 0.00 | 54 | 1003.6 |
| 20260507143112 | 88 | 325 | 3.0 | 13.0 | 0.00 | 0.00 | 0.00 | 54 | 1004.0 |
| 20260507142619 | 87 | 333 | 2.0 | 9.0 | 0.00 | 0.00 | 0.00 | 55 | 1004.3 |
| 20260507142612 | 87 | 18 | 3.0 | 13.0 | 0.00 | 0.00 | 0.00 | 53 | 1004.0 |
| 20260507141839 | 87 | 350 | 2.0 | 12.0 | 0.00 | 0.00 | 0.00 | 55 | 1004.6 |
| 20260507141340 | 87 | 310 | 3.0 | 18.0 | 0.00 | 0.00 | 0.00 | 55 | 1004.6 |
| 20260507140839 | 87 | 18 | 2.0 | 18.0 | 0.00 | 0.00 | 0.00 | 56 | 1004.9 |
| 20260507140108 | 87 | 302 | 2.0 | 13.0 | 0.00 | 0.00 | 0.00 | 56 | 1004.9 |
| 20260507135610 | 86 | 338 | 2.0 | 11.0 | 0.00 | 0.00 | 0.00 | 56 | 1005.2 |
| 20260507135108 | 86 | 340 | 3.0 | 12.0 | 0.00 | 0.00 | 0.00 | 57 | 1005.2 |
| 20260507134108 | 85 | 316 | 3.0 | 12.0 | 0.00 | 0.00 | 0.00 | 57 | 1005.6 |
| 20260507133608 | 85 | 327 | 3.0 | 12.0 | 0.00 | 0.00 | 0.00 | 58 | 1005.7 |
| 20260507133108 | 85 | 349 | 2.0 | 21.0 | 0.00 | 0.00 | 0.00 | 59 | 1006.0 |
| 20260507132608 | 84 | 337 | 2.0 | 21.0 | 0.00 | 0.00 | 0.00 | 60 | 1006.0 |
| 20260507132338 | 84 | 348 | 2.0 | 8.0 | 0.00 | 0.00 | 0.00 | 60 | 1006.1 |
| 20260507131606 | 84 | 355 | 1.0 | 8.0 | 0.00 | 0.00 | 0.00 | 60 | 1006.1 |
| 20260507131338 | 84 | 343 | 2.0 | 8.0 | 0.00 | 0.00 | 0.00 | 60 | 1006.2 |
| 20260507130606 | 84 | 31 | 3.0 | 9.0 | 0.00 | 0.00 | 0.00 | 61 | 1006.3 |
| 20260507130106 | 83 | 20 | 2.0 | 9.0 | 0.00 | 0.00 | 0.00 | 62 | 1006.5 |
| 20260507125547 | 83 | 28 | 1.0 | 7.0 | 0.00 | 0.00 | 0.00 | 63 | 1006.5 |
| 20260507125046 | 82 | 33 | 2.0 | 12.0 | 0.00 | 0.00 | 0.00 | 63 | 1006.6 |
| 20260507124547 | 82 | 342 | 1.0 | 12.0 | 0.00 | 0.00 | 0.00 | 63 | 1006.7 |
| 20260507124047 | 82 | 7 | 2.0 | 11.0 | 0.00 | 0.00 | 0.00 | 63 | 1006.8 |
| 20260507123538 | 82 | 338 | 2.0 | 11.0 | 0.00 | 0.00 | 0.00 | 63 | 1007.0 |
| 20260507123033 | 82 | 355 | 1.0 | 9.0 | 0.00 | 0.00 | 0.00 | 63 | 1007.0 |
| 20260507122540 | 82 | 351 | 1.0 | 12.0 | 0.00 | 0.00 | 0.00 | 64 | 1007.1 |
| 20260507122533 | 82 | 343 | 2.0 | 12.0 | 0.00 | 0.00 | 0.00 | 64 | 1007.0 |
| 20260507121530 | 82 | 346 | 0.0 | 3.0 | 0.00 | 0.00 | 0.00 | 64 | 1007.0 |
| 20260507121028 | 82 | 28 | 0.0 | 3.0 | 0.00 | 0.00 | 0.00 | 65 | 1006.9 |
| 20260507120517 | 82 | 9 | 0.0 | 2.0 | 0.00 | 0.00 | 0.00 | 66 | 1006.9 |
| 20260507120017 | 81 | 9 | 0.0 | 2.0 | 0.00 | 0.00 | 0.00 | 65 | 1006.9 |
| 20260507115514 | 81 | 52 | 0.0 | 2.0 | 0.00 | 0.00 | 0.00 | 65 | 1007.1 |
| 20260507115010 | 81 | 52 | 0.0 | 2.0 | 0.00 | 0.00 | 0.00 | 66 | 1007.0 |
| 20260507114509 | 81 | 52 | 0.0 | 2.0 | 0.00 | 0.00 | 0.00 | 66 | 1007.0 |
| 20260507114002 | 81 | 52 | 0.0 | 5.0 | 0.00 | 0.00 | 0.00 | 66 | 1007.1 |
| 20260507112943 | 81 | 42 | 0.0 | 2.0 | 0.00 | 0.00 | 0.00 | 66 | 1007.0 |
| 20260507112438 | 81 | 42 | 0.0 | 2.0 | 0.00 | 0.00 | 0.00 | 66 | 1006.9 |
| 20260507111934 | 81 | 233 | 0.0 | 1.0 | 0.00 | 0.00 | 0.00 | 66 | 1006.8 |
| 20260507111654 | 81 | 124 | 1.0 | 7.0 | 0.00 | 0.00 | 0.00 | 65 | 1006.9 |
| 20260507110919 | 81 | 353 | 1.0 | 8.0 | 0.00 | 0.00 | 0.00 | 65 | 1006.7 |
| 20260507110409 | 81 | 58 | 1.0 | 8.0 | 0.00 | 0.00 | 0.00 | 65 | 1006.5 |
| 20260507105902 | 81 | 37 | 2.0 | 10.0 | 0.00 | 0.00 | 0.00 | 65 | 1006.4 |
| 20260507105404 | 81 | 33 | 2.0 | 10.0 | 0.00 | 0.00 | 0.00 | 65 | 1006.4 |
| 20260507104857 | 81 | 56 | 1.0 | 5.0 | 0.00 | 0.00 | 0.00 | 67 | 1006.2 |
| 20260507104115 | 80 | 326 | 1.0 | 4.0 | 0.00 | 0.00 | 0.00 | 67 | 1006.1 |
| 20260507103608 | 80 | 20 | 1.0 | 9.0 | 0.00 | 0.00 | 0.00 | 67 | 1006.3 |
| 20260507102824 | 80 | 356 | 1.0 | 9.0 | 0.00 | 0.00 | 0.00 | 68 | 1006.3 |
| 20260507101814 | 80 | 327 | 1.0 | 8.0 | 0.00 | 0.00 | 0.00 | 68 | 1006.4 |
| 20260507101312 | 80 | 3 | 2.0 | 12.0 | 0.00 | 0.00 | 0.00 | 68 | 1006.3 |
| 20260507100810 | 80 | 49 | 2.0 | 12.0 | 0.00 | 0.00 | 0.00 | 68 | 1006.3 |
| 20260507100542 | 80 | 15 | 1.0 | 7.0 | 0.00 | 0.00 | 0.00 | 68 | 1006.4 |
| 20260507100042 | 80 | 2 | 1.0 | 7.0 | 0.00 | 0.00 | 0.00 | 68 | 1006.3 |
| 20260507095305 | 80 | 345 | 1.0 | 8.0 | 0.00 | 0.00 | 0.00 | 68 | 1006.3 |
| 20260507094752 | 80 | 303 | 1.0 | 8.0 | 0.00 | 0.00 | 0.00 | 68 | 1006.4 |
| 20260507094243 | 80 | 320 | 1.0 | 7.0 | 0.00 | 0.00 | 0.00 | 68 | 1006.5 |
| 20260507094004 | 80 | 324 | 1.0 | 7.0 | 0.00 | 0.00 | 0.00 | 68 | 1006.5 |
| 20260507093222 | 80 | 333 | 1.0 | 7.0 | 0.00 | 0.00 | 0.00 | 68 | 1006.6 |
| 20260507092700 | 80 | 320 | 0.0 | 4.0 | 0.00 | 0.00 | 0.00 | 68 | 1006.5 |
| 20260507092150 | 80 | 335 | 0.0 | 6.0 | 0.00 | 0.00 | 0.00 | 68 | 1006.5 |
| 20260507091640 | 80 | 333 | 1.0 | 6.0 | 0.00 | 0.00 | 0.00 | 68 | 1006.5 |
| 20260507091131 | 80 | 35 | 0.0 | 4.0 | 0.00 | 0.00 | 0.00 | 68 | 1006.4 |
| 20260507090852 | 79 | 356 | 0.0 | 4.0 | 0.00 | 0.00 | 0.00 | 69 | 1006.4 |
| 20260507090111 | 79 | 25 | 1.0 | 4.0 | 0.00 | 0.00 | 0.00 | 69 | 1006.3 |
| 20260507085552 | 79 | 25 | 1.0 | 4.0 | 0.00 | 0.00 | 0.00 | 69 | 1006.3 |
| 20260507085313 | 79 | 349 | 0.0 | 5.0 | 0.00 | 0.00 | 0.00 | 69 | 1006.2 |
| 20260507084532 | 79 | 345 | 1.0 | 7.0 | 0.00 | 0.00 | 0.00 | 69 | 1006.2 |
| 20260507084022 | 79 | 326 | 1.0 | 7.0 | 0.00 | 0.00 | 0.00 | 70 | 1006.2 |
| 20260507083512 | 79 | 347 | 0.0 | 5.0 | 0.00 | 0.00 | 0.00 | 70 | 1006.3 |
| 20260507083003 | 79 | 335 | 0.0 | 0.0 | 0.00 | 0.00 | 0.00 | 70 | 1006.4 |
| 20260507082451 | 79 | 6 | 0.0 | 0.0 | 0.00 | 0.00 | 0.00 | 70 | 1006.4 |
| 20260507081937 | 79 | 16 | 0.0 | 0.0 | 0.00 | 0.00 | 0.00 | 70 | 1006.4 |
| 20260507081427 | 79 | 16 | 0.0 | 0.0 | 0.00 | 0.00 | 0.00 | 70 | 1006.3 |
| 20260507080916 | 78 | 16 | 0.0 | 0.0 | 0.00 | 0.00 | 0.00 | 71 | 1006.3 |
| 20260507080905 | 78 | 24 | 0.0 | 0.0 | 0.00 | 0.00 | 0.00 | 71 | 1006.3 |
| 20260507075850 | 78 | 23 | 0.0 | 0.0 | 0.00 | 0.00 | 0.00 | 71 | 1006.5 |
| 20260507075340 | 78 | 24 | 0.0 | 3.0 | 0.00 | 0.00 | 0.00 | 72 | 1006.5 |
| 20260507074830 | 78 | 24 | 0.0 | 3.0 | 0.00 | 0.00 | 0.00 | 72 | 1006.5 |
| 20260507074322 | 78 | 38 | 1.0 | 3.0 | 0.00 | 0.00 | 0.00 | 72 | 1006.5 |
| 20260507073816 | 78 | 62 | 1.0 | 6.0 | 0.00 | 0.00 | 0.00 | 73 | 1006.6 |
| 20260507073314 | 77 | 33 | 0.0 | 6.0 | 0.00 | 0.00 | 0.00 | 74 | 1006.7 |
| 20260507072814 | 77 | 57 | 0.0 | 3.0 | 0.00 | 0.00 | 0.00 | 74 | 1006.8 |
| 20260507072313 | 77 | 57 | 0.0 | 4.0 | 0.00 | 0.00 | 0.00 | 75 | 1006.9 |
| 20260507071313 | 76 | 71 | 0.0 | 0.0 | 0.00 | 0.00 | 0.00 | 76 | 1007.0 |
| 20260507070812 | 76 | 235 | 0.0 | 0.0 | 0.00 | 0.00 | 0.00 | 77 | 1007.1 |
| 20260507070311 | 76 | 242 | 0.0 | 0.0 | 0.00 | 0.00 | 0.00 | 78 | 1007.1 |
| 20260507065811 | 76 | 246 | 0.0 | 0.0 | 0.00 | 0.00 | 0.00 | 78 | 1007.1 |
| 20260507065543 | 76 | 254 | 0.0 | 0.0 | 0.00 | 0.00 | 0.00 | 78 | 1007.3 |
| 20260507064812 | 76 | 254 | 0.0 | 0.0 | 0.00 | 0.00 | 0.00 | 78 | 1007.5 |
| 20260507064311 | 76 | 185 | 0.0 | 0.0 | 0.00 | 0.00 | 0.00 | 77 | 1007.5 |
| 20260507063812 | 76 | 185 | 0.0 | 0.0 | 0.00 | 0.00 | 0.00 | 77 | 1007.5 |
| 20260507063309 | 76 | 185 | 0.0 | 0.0 | 0.00 | 0.00 | 0.00 | 77 | 1007.6 |
| 20260507063038 | 77 | 185 | 0.0 | 0.0 | 0.00 | 0.00 | 0.00 | 76 | 1007.6 |
| 20260507062306 | 77 | 185 | 0.0 | 0.0 | 0.00 | 0.00 | 0.00 | 75 | 1007.8 |
| 20260507061804 | 78 | 166 | 0.0 | 0.0 | 0.00 | 0.00 | 0.00 | 74 | 1007.8 |
| 20260507061301 | 78 | 83 | 0.0 | 0.0 | 0.00 | 0.00 | 0.00 | 73 | 1007.7 |
| 20260507060801 | 78 | 68 | 0.0 | 2.0 | 0.00 | 0.00 | 0.00 | 73 | 1007.9 |
| 20260507060256 | 78 | 68 | 0.0 | 2.0 | 0.00 | 0.00 | 0.00 | 72 | 1007.9 |
| 20260507055754 | 79 | 68 | 1.0 | 4.0 | 0.00 | 0.00 | 0.00 | 72 | 1008.0 |
| 20260507055254 | 79 | 68 | 1.0 | 5.0 | 0.00 | 0.00 | 0.00 | 72 | 1008.1 |
| 20260507054752 | 79 | 70 | 2.0 | 5.0 | 0.00 | 0.00 | 0.00 | 72 | 1008.1 |
| 20260507054235 | 79 | 78 | 4.0 | 9.0 | 0.00 | 0.00 | 0.00 | 72 | 1008.2 |
| 20260507053736 | 78 | 68 | 3.0 | 9.0 | 0.00 | 0.00 | 0.00 | 73 | 1008.2 |
| 20260507053236 | 77 | 68 | 2.0 | 7.0 | 0.00 | 0.00 | 0.00 | 76 | 1008.4 |
| 20260507052742 | 75 | 47 | 2.0 | 11.0 | 0.00 | 0.00 | 0.00 | 81 | 1008.7 |
| 20260507052735 | 76 | 58 | 3.0 | 8.0 | 0.00 | 0.00 | 0.00 | 78 | 1008.5 |
| 20260507051735 | 74 | 81 | 1.0 | 11.0 | 0.00 | 0.00 | 0.00 | 83 | 1008.7 |
| 20260507051235 | 74 | 67 | 0.0 | 0.0 | 0.00 | 0.00 | 0.00 | 84 | 1008.8 |
| 20260507050736 | 74 | 67 | 0.0 | 0.0 | 0.00 | 0.00 | 0.00 | 84 | 1009.0 |
| 20260507050235 | 74 | 67 | 0.0 | 8.0 | 0.00 | 0.00 | 0.00 | 85 | 1009.1 |
| 20260507045735 | 73 | 66 | 0.0 | 8.0 | 0.00 | 0.00 | 0.00 | 85 | 1009.1 |
| 20260507045233 | 73 | 112 | 0.0 | 0.0 | 0.00 | 0.00 | 0.00 | 86 | 1009.1 |
| 20260507044733 | 73 | 114 | 0.0 | 0.0 | 0.00 | 0.00 | 0.00 | 87 | 1009.2 |
| 20260507044231 | 73 | 162 | 0.0 | 0.0 | 0.00 | 0.00 | 0.00 | 88 | 1009.3 |
| 20260507043729 | 73 | 164 | 0.0 | 0.0 | 0.00 | 0.00 | 0.00 | 88 | 1009.4 |
| 20260507043230 | 73 | 164 | 0.0 | 0.0 | 0.00 | 0.00 | 0.00 | 88 | 1009.4 |
| 20260507042718 | 73 | 164 | 0.0 | 0.0 | 0.00 | 0.00 | 0.00 | 88 | 1009.4 |
| 20260507042218 | 73 | 164 | 0.0 | 0.0 | 0.00 | 0.00 | 0.00 | 89 | 1009.6 |
| 20260507041718 | 73 | 164 | 0.0 | 0.0 | 0.00 | 0.00 | 0.00 | 89 | 1009.6 |
| 20260507041218 | 73 | 164 | 0.0 | 0.0 | 0.00 | 0.00 | 0.00 | 89 | 1009.8 |
| 20260507040947 | 72 | 164 | 0.0 | 0.0 | 0.00 | 0.00 | 0.00 | 89 | 1009.9 |
| 20260507040216 | 72 | 164 | 0.0 | 0.0 | 0.00 | 0.00 | 0.00 | 89 | 1009.9 |
| 20260507035716 | 72 | 164 | 0.0 | 0.0 | 0.00 | 0.00 | 0.00 | 89 | 1010.1 |
| 20260507035215 | 72 | 70 | 0.0 | 0.0 | 0.00 | 0.00 | 0.00 | 89 | 1010.0 |
| 20260507034945 | 72 | 69 | 0.0 | 0.0 | 0.00 | 0.00 | 0.00 | 89 | 1010.0 |
| 20260507033712 | 72 | 69 | 0.0 | 0.0 | 0.00 | 0.00 | 0.00 | 88 | 1010.1 |
| 20260507033210 | 72 | 69 | 0.0 | 0.0 | 0.00 | 0.00 | 0.00 | 88 | 1010.2 |
| 20260507032708 | 72 | 69 | 0.0 | 0.0 | 0.00 | 0.00 | 0.00 | 88 | 1010.3 |
| 20260507032206 | 73 | 69 | 0.0 | 0.0 | 0.00 | 0.00 | 0.00 | 88 | 1010.3 |
| 20260507031705 | 73 | 69 | 0.0 | 0.0 | 0.00 | 0.00 | 0.00 | 88 | 1010.3 |
| 20260507031203 | 73 | 69 | 0.0 | 0.0 | 0.00 | 0.00 | 0.00 | 88 | 1010.4 |
| 20260507030714 | 73 | 69 | 0.0 | 0.0 | 0.00 | 0.00 | 0.00 | 88 | 1010.5 |
| 20260507030212 | 73 | 69 | 0.0 | 0.0 | 0.00 | 0.00 | 0.00 | 88 | 1010.6 |
| 20260507025704 | 73 | 69 | 0.0 | 0.0 | 0.00 | 0.00 | 0.00 | 87 | 1010.7 |
| 20260507025201 | 73 | 69 | 0.0 | 0.0 | 0.00 | 0.00 | 0.00 | 87 | 1010.7 |
| 20260507024706 | 74 | 69 | 0.0 | 0.0 | 0.00 | 0.00 | 0.00 | 88 | 1010.7 |
| 20260507024659 | 74 | 69 | 0.0 | 0.0 | 0.00 | 0.00 | 0.00 | 88 | 1010.7 |
| 20260507023659 | 74 | 69 | 0.0 | 0.0 | 0.00 | 0.00 | 0.00 | 87 | 1010.8 |
| 20260507023157 | 74 | 69 | 0.0 | 0.0 | 0.00 | 0.00 | 0.00 | 87 | 1010.9 |
| 20260507022655 | 74 | 69 | 0.0 | 0.0 | 0.00 | 0.00 | 0.00 | 87 | 1010.9 |
| 20260507021652 | 74 | 69 | 0.0 | 0.0 | 0.00 | 0.00 | 0.00 | 86 | 1011.0 |
| 20260507021153 | 74 | 69 | 0.0 | 0.0 | 0.00 | 0.00 | 0.00 | 86 | 1011.0 |
| 20260507020653 | 74 | 69 | 0.0 | 0.0 | 0.00 | 0.00 | 0.00 | 85 | 1011.1 |
| 20260507020421 | 74 | 69 | 0.0 | 0.0 | 0.00 | 0.00 | 0.00 | 85 | 1011.1 |
| 20260507015648 | 75 | 69 | 0.0 | 0.0 | 0.00 | 0.00 | 0.00 | 85 | 1011.2 |
| 20260507015145 | 75 | 69 | 0.0 | 0.0 | 0.00 | 0.00 | 0.00 | 85 | 1011.1 |
| 20260507014145 | 75 | 69 | 0.0 | 0.0 | 0.00 | 0.00 | 0.00 | 84 | 1011.0 |
| 20260507013642 | 76 | 69 | 0.0 | 0.0 | 0.00 | 0.00 | 0.00 | 84 | 1011.0 |
| 20260507013414 | 76 | 69 | 0.0 | 0.0 | 0.00 | 0.00 | 0.00 | 84 | 1011.1 |
| 20260507012641 | 76 | 69 | 0.0 | 0.0 | 0.00 | 0.00 | 0.00 | 83 | 1011.2 |
| 20260507012139 | 76 | 69 | 0.0 | 0.0 | 0.00 | 0.00 | 0.00 | 83 | 1011.2 |
| 20260507011634 | 76 | 69 | 0.0 | 0.0 | 0.00 | 0.00 | 0.00 | 83 | 1011.3 |
| 20260507011140 | 77 | 69 | 0.0 | 0.0 | 0.00 | 0.00 | 0.00 | 83 | 1011.5 |
| 20260507011133 | 76 | 69 | 0.0 | 0.0 | 0.00 | 0.00 | 0.00 | 83 | 1011.4 |
| 20260507010132 | 77 | 69 | 0.0 | 0.0 | 0.00 | 0.00 | 0.00 | 82 | 1011.3 |
| 20260507005633 | 77 | 69 | 0.0 | 0.0 | 0.00 | 0.00 | 0.00 | 81 | 1011.3 |
| 20260507004633 | 78 | 69 | 0.0 | 0.0 | 0.00 | 0.00 | 0.00 | 80 | 1011.3 |
| 20260507004131 | 78 | 69 | 0.0 | 0.0 | 0.00 | 0.00 | 0.00 | 80 | 1011.3 |
| 20260507003630 | 78 | 69 | 0.0 | 0.0 | 0.00 | 0.00 | 0.00 | 79 | 1011.3 |
| 20260507003128 | 78 | 69 | 0.0 | 0.0 | 0.00 | 0.00 | 0.00 | 79 | 1011.3 |
| 20260507002628 | 78 | 69 | 0.0 | 0.0 | 0.00 | 0.00 | 0.00 | 78 | 1011.3 |
| 20260507002358 | 78 | 69 | 0.0 | 0.0 | 0.00 | 0.00 | 0.00 | 78 | 1011.3 |
| 20260507001623 | 79 | 69 | 0.0 | 0.0 | 0.00 | 0.00 | 0.00 | 78 | 1011.3 |
| 20260507001118 | 79 | 69 | 0.0 | 0.0 | 0.00 | 0.00 | 0.00 | 78 | 1011.3 |
| 20260507000613 | 79 | 69 | 0.0 | 0.0 | 0.00 | 0.00 | 0.00 | 77 | 1011.4 |
| 20260506235609 | 79 | 69 | 0.0 | 0.0 | 0.00 | 0.00 | 0.00 | 76 | 1011.4 |
| 20260506235115 | 79 | 67 | 0.0 | 0.0 | 0.00 | 0.00 | 0.00 | 75 | 1011.4 |
| 20260506235109 | 79 | 69 | 0.0 | 0.0 | 0.00 | 0.00 | 0.00 | 75 | 1011.4 |
| 20260506234105 | 80 | 67 | 0.0 | 0.0 | 0.00 | 0.00 | 0.00 | 75 | 1011.4 |
| 20260506233835 | 80 | 67 | 0.0 | 0.0 | 0.00 | 0.00 | 0.00 | 75 | 1011.5 |
| 20260506233054 | 80 | 68 | 0.0 | 5.0 | 0.00 | 0.00 | 0.00 | 74 | 1011.5 |
| 20260506232549 | 80 | 67 | 1.0 | 5.0 | 0.00 | 0.00 | 0.00 | 74 | 1011.4 |
| 20260506232042 | 80 | 80 | 1.0 | 5.0 | 0.00 | 0.00 | 0.00 | 74 | 1011.5 |
| 20260506231525 | 80 | 77 | 1.0 | 5.0 | 0.00 | 0.00 | 0.00 | 74 | 1011.4 |
| 20260506231021 | 80 | 74 | 1.0 | 5.0 | 0.00 | 0.00 | 0.00 | 75 | 1011.4 |
| 20260506230518 | 80 | 85 | 1.0 | 5.0 | 0.00 | 0.00 | 0.00 | 75 | 1011.3 |
| 20260506230016 | 80 | 80 | 2.0 | 6.0 | 0.00 | 0.00 | 0.00 | 75 | 1011.3 |
| 20260506225513 | 80 | 67 | 1.0 | 6.0 | 0.00 | 0.00 | 0.00 | 75 | 1011.2 |
| 20260506225012 | 80 | 80 | 1.0 | 5.0 | 0.00 | 0.00 | 0.00 | 75 | 1011.3 |
| 20260506224506 | 80 | 63 | 1.0 | 6.0 | 0.00 | 0.00 | 0.00 | 75 | 1011.3 |
| 20260506223954 | 80 | 70 | 1.0 | 6.0 | 0.00 | 0.00 | 0.00 | 75 | 1011.3 |
| 20260506222936 | 80 | 53 | 2.0 | 6.0 | 0.00 | 0.00 | 0.00 | 75 | 1011.2 |
| 20260506222426 | 80 | 54 | 2.0 | 6.0 | 0.00 | 0.00 | 0.00 | 75 | 1011.1 |
| 20260506221920 | 81 | 71 | 1.0 | 5.0 | 0.00 | 0.00 | 0.00 | 75 | 1011.2 |
| 20260506221907 | 81 | 61 | 1.0 | 5.0 | 0.00 | 0.00 | 0.00 | 75 | 1011.1 |
| 20260506220854 | 81 | 78 | 1.0 | 5.0 | 0.00 | 0.00 | 0.00 | 75 | 1011.1 |
| 20260506215829 | 81 | 74 | 0.0 | 6.0 | 0.00 | 0.00 | 0.00 | 76 | 1011.1 |
| 20260506215318 | 81 | 79 | 0.0 | 3.0 | 0.00 | 0.00 | 0.00 | 76 | 1011.1 |
| 20260506214809 | 81 | 69 | 1.0 | 5.0 | 0.00 | 0.00 | 0.00 | 76 | 1011.1 |
| 20260506214305 | 82 | 68 | 1.0 | 5.0 | 0.00 | 0.00 | 0.00 | 76 | 1011.0 |
| 20260506213753 | 82 | 69 | 0.0 | 5.0 | 0.00 | 0.00 | 0.00 | 75 | 1011.0 |
| 20260506213243 | 83 | 58 | 0.0 | 3.0 | 0.00 | 0.00 | 0.00 | 75 | 1011.1 |
| 20260506212732 | 83 | 62 | 0.0 | 3.0 | 0.00 | 0.00 | 0.00 | 74 | 1011.1 |
| 20260506212224 | 83 | 62 | 0.0 | 5.0 | 0.00 | 0.00 | 0.00 | 73 | 1011.0 |
| 20260506211713 | 83 | 58 | 1.0 | 5.0 | 0.00 | 0.00 | 0.00 | 73 | 1011.0 |
| 20260506211203 | 84 | 72 | 1.0 | 4.0 | 0.00 | 0.00 | 0.00 | 72 | 1011.0 |
| 20260506210651 | 84 | 73 | 1.0 | 4.0 | 0.00 | 0.00 | 0.00 | 71 | 1011.0 |
| 20260506210142 | 85 | 69 | 1.0 | 4.0 | 0.00 | 0.00 | 0.00 | 70 | 1011.1 |
| 20260506205632 | 85 | 72 | 0.0 | 4.0 | 0.00 | 0.00 | 0.00 | 69 | 1011.1 |
| 20260506205120 | 86 | 75 | 0.0 | 4.0 | 0.00 | 0.00 | 0.00 | 67 | 1011.1 |
| 20260506204611 | 87 | 62 | 0.0 | 3.0 | 0.00 | 0.00 | 0.00 | 66 | 1011.1 |
| 20260506204101 | 88 | 62 | 0.0 | 0.0 | 0.00 | 0.00 | 0.00 | 64 | 1011.1 |
| 20260506203544 | 88 | 62 | 0.0 | 0.0 | 0.00 | 0.00 | 0.00 | 63 | 1011.1 |
| 20260506203030 | 89 | 60 | 0.0 | 3.0 | 0.00 | 0.00 | 0.00 | 62 | 1011.1 |
| 20260506202515 | 89 | 62 | 0.0 | 3.0 | 0.00 | 0.00 | 0.00 | 60 | 1011.1 |
| 20260506202006 | 90 | 37 | 0.0 | 0.0 | 0.00 | 0.00 | 0.00 | 58 | 1011.1 |
| 20260506201453 | 90 | 37 | 0.0 | 0.0 | 0.00 | 0.00 | 0.00 | 57 | 1011.2 |
| 20260506200942 | 91 | 37 | 0.0 | 0.0 | 0.00 | 0.00 | 0.00 | 57 | 1011.2 |
| 20260506200433 | 91 | 37 | 0.0 | 0.0 | 0.00 | 0.00 | 0.00 | 56 | 1011.3 |
| 20260506195923 | 91 | 35 | 0.0 | 1.0 | 0.00 | 0.00 | 0.00 | 55 | 1011.4 |
| 20260506195412 | 92 | 35 | 0.0 | 1.0 | 0.00 | 0.00 | 0.00 | 55 | 1011.4 |
| 20260506194856 | 92 | 4 | 0.0 | 1.0 | 0.00 | 0.00 | 0.00 | 55 | 1011.4 |
| 20260506194617 | 92 | 12 | 0.0 | 0.0 | 0.00 | 0.00 | 0.00 | 55 | 1011.4 |
| 20260506193832 | 92 | 12 | 0.0 | 1.0 | 0.00 | 0.00 | 0.00 | 55 | 1011.5 |
| 20260506193103 | 92 | 14 | 0.0 | 1.0 | 0.00 | 0.00 | 0.00 | 55 | 1011.5 |
| 20260506192601 | 92 | 14 | 0.0 | 1.0 | 0.00 | 0.00 | 0.00 | 55 | 1011.5 |
| 20260506191827 | 92 | 353 | 0.0 | 1.0 | 0.00 | 0.00 | 0.00 | 55 | 1011.5 |
| 20260506191323 | 92 | 358 | 0.0 | 1.0 | 0.00 | 0.00 | 0.00 | 56 | 1011.5 |
| 20260506190324 | 92 | 14 | 0.0 | 1.0 | 0.00 | 0.00 | 0.00 | 56 | 1011.5 |
| 20260506185824 | 92 | 338 | 0.0 | 1.0 | 0.00 | 0.00 | 0.00 | 56 | 1011.6 |
| 20260506185322 | 91 | 339 | 0.0 | 2.0 | 0.00 | 0.00 | 0.00 | 56 | 1011.6 |
| 20260506184818 | 91 | 13 | 0.0 | 2.0 | 0.00 | 0.00 | 0.00 | 56 | 1011.6 |
| 20260506184318 | 91 | 37 | 0.0 | 4.0 | 0.00 | 0.00 | 0.00 | 56 | 1011.5 |
| 20260506184048 | 91 | 341 | 0.0 | 4.0 | 0.00 | 0.00 | 0.00 | 56 | 1011.5 |
| 20260506183317 | 91 | 31 | 0.0 | 3.0 | 0.00 | 0.00 | 0.00 | 56 | 1011.6 |
| 20260506182818 | 91 | 342 | 1.0 | 5.0 | 0.00 | 0.00 | 0.00 | 55 | 1011.7 |